GW2350 Weather Reports


time (UTC)temp
C
wind
direction
speed
KPH
gust
KPH
rain 1hr
cm
rain 24hr
cm
rain mn
cm
humidity
%
barometer
mb
20260507130951 10 298 0.0 0.0 0.00 0.00 0.00 92 1018.2
20260507130448 10 299 0.0 0.0 0.00 0.00 0.00 92 1018.2
20260507125946 10 298 0.0 0.0 0.00 0.00 0.00 92 1018.1
20260507125444 10 298 0.0 0.0 0.00 0.00 0.00 92 1018.2
20260507124941 10 298 0.0 0.0 0.00 0.00 0.00 92 1018.2
20260507124437 10 298 0.0 0.0 0.00 0.00 0.00 92 1018.1
20260507123936 10 298 0.0 0.0 0.00 0.00 0.00 92 1017.8
20260507123433 10 299 0.0 0.0 0.00 0.00 0.00 92 1018.0
20260507122929 10 299 0.0 0.0 0.00 0.00 0.00 92 1017.9
20260507122424 10 298 0.0 0.0 0.00 0.00 0.00 91 1017.9
20260507121921 10 298 0.0 0.0 0.00 0.00 0.00 91 1018.1
20260507121416 10 298 0.0 0.0 0.00 0.00 0.00 91 1018.1
20260507120913 10 298 0.0 0.0 0.00 0.00 0.00 91 1018.1
20260507120409 10 298 0.0 0.0 0.00 0.00 0.00 91 1018.0
20260507115906 10 298 0.0 0.0 0.00 0.00 0.00 91 1018.2
20260507115402 10 298 0.0 0.0 0.00 0.00 0.00 91 1017.9
20260507114858 10 298 0.0 0.0 0.00 0.00 0.00 91 1017.8
20260507114355 10 299 0.0 0.0 0.00 0.00 0.00 90 1017.9
20260507113852 10 299 0.0 0.0 0.00 0.00 0.00 90 1018.0
20260507113349 11 299 0.0 0.0 0.00 0.00 0.00 90 1018.1
20260507112846 10 299 0.0 0.0 0.00 0.00 0.00 90 1018.0
20260507112343 11 299 0.0 0.0 0.00 0.00 0.00 90 1018.3
20260507111841 10 299 0.0 0.0 0.00 0.00 0.00 90 1018.1
20260507111338 11 299 0.0 0.0 0.00 0.00 0.00 89 1018.3
20260507110834 11 299 0.0 0.0 0.00 0.00 0.00 89 1018.4
20260507110330 11 301 0.0 0.0 0.00 0.00 0.00 89 1018.4
20260507105827 10 289 0.0 0.0 0.00 0.00 0.00 89 1018.3
20260507105324 11 289 0.0 0.0 0.00 0.00 0.00 89 1018.2
20260507104821 11 286 0.0 0.0 0.00 0.00 0.00 89 1018.3
20260507104317 11 285 0.0 0.0 0.00 0.00 0.00 89 1018.2
20260507103813 11 281 0.0 0.0 0.00 0.00 0.00 88 1018.4
20260507103310 11 281 0.0 0.0 0.00 0.00 0.00 88 1018.5
20260507102806 11 281 0.0 0.0 0.00 0.00 0.00 88 1018.4
20260507102306 11 281 0.0 0.0 0.00 0.00 0.00 88 1018.4
20260507101759 11 281 0.0 0.0 0.00 0.00 0.00 88 1018.6
20260507101259 11 280 0.0 0.0 0.00 0.00 0.00 88 1018.7
20260507100756 11 280 0.0 0.0 0.00 0.00 0.00 88 1018.8
20260507100255 11 280 0.0 0.0 0.00 0.00 0.00 88 1018.7
20260507095752 11 280 0.0 0.0 0.00 0.00 0.00 87 1018.6
20260507095249 11 280 0.0 0.0 0.00 0.00 0.00 87 1018.3
20260507094746 11 280 0.0 0.0 0.00 0.00 0.00 87 1018.4
20260507094243 11 280 0.0 0.0 0.00 0.00 0.00 87 1018.7
20260507093739 11 280 0.0 0.0 0.00 0.00 0.00 87 1018.5
20260507093238 11 280 0.0 0.0 0.00 0.00 0.00 87 1018.8
20260507092735 11 280 0.0 0.0 0.00 0.00 0.00 87 1018.6
20260507092231 11 281 0.0 0.0 0.00 0.00 0.00 86 1018.8
20260507091728 11 281 0.0 0.0 0.00 0.00 0.00 86 1018.9
20260507091224 11 281 0.0 0.0 0.00 0.00 0.00 86 1018.9
20260507090720 12 281 0.0 0.0 0.00 0.00 0.00 86 1018.8
20260507090217 12 281 0.0 0.0 0.00 0.00 0.00 86 1018.8
20260507085714 12 281 0.0 0.0 0.00 0.00 0.00 86 1018.9
20260507085211 12 281 0.0 0.0 0.00 0.00 0.00 85 1018.9
20260507084708 12 281 0.0 0.0 0.00 0.00 0.00 85 1018.8
20260507084204 12 281 0.0 0.0 0.00 0.00 0.00 85 1019.2
20260507083702 12 281 0.0 0.0 0.00 0.00 0.00 85 1019.1
20260507083158 12 281 0.0 0.0 0.00 0.00 0.00 85 1019.1
20260507082654 12 281 0.0 0.0 0.00 0.00 0.00 85 1019.1
20260507082150 12 281 0.0 0.0 0.00 0.00 0.00 84 1019.2
20260507081647 12 281 0.0 0.0 0.00 0.00 0.00 84 1019.2
20260507081143 12 281 0.0 0.0 0.00 0.00 0.00 83 1019.4
20260507080640 12 280 0.0 0.0 0.00 0.00 0.00 83 1019.4
20260507080136 12 280 0.0 0.0 0.00 0.00 0.00 83 1019.4
20260507075631 12 280 0.0 0.0 0.00 0.00 0.00 82 1019.4
20260507075128 12 282 0.0 0.0 0.00 0.00 0.00 83 1019.5
20260507074625 12 282 0.0 0.0 0.00 0.00 0.00 83 1019.5
20260507074123 12 283 0.0 0.0 0.00 0.00 0.00 84 1019.8
20260507073619 12 283 0.0 0.0 0.00 0.00 0.00 84 1019.5
20260507073115 12 281 0.0 0.0 0.00 0.00 0.00 84 1019.5
20260507072613 12 283 0.0 0.0 0.00 0.00 0.00 84 1019.4
20260507072110 12 283 0.0 0.0 0.00 0.00 0.00 84 1019.5
20260507071607 12 283 0.0 0.0 0.00 0.00 0.00 83 1019.6
20260507071104 12 283 0.0 0.0 0.00 0.00 0.00 83 1019.8
20260507070601 12 283 0.0 0.0 0.00 0.00 0.00 83 1019.8
20260507070058 13 283 0.0 0.0 0.00 0.00 0.00 82 1019.6
20260507065554 13 283 0.0 0.0 0.00 0.00 0.00 82 1019.6
20260507065051 13 283 0.0 0.0 0.00 0.00 0.00 82 1019.4
20260507064549 13 283 0.0 0.0 0.00 0.00 0.00 83 1019.7
20260507064048 13 283 0.0 0.0 0.00 0.00 0.00 83 1019.7
20260507063544 13 283 0.0 0.0 0.00 0.00 0.00 83 1019.6
20260507063042 13 283 0.0 0.0 0.00 0.00 0.00 83 1019.5
20260507062538 13 283 0.0 0.0 0.00 0.00 0.00 83 1019.6
20260507062036 13 283 0.0 0.0 0.00 0.00 0.00 83 1019.8
20260507061533 13 283 0.0 0.0 0.00 0.00 0.00 82 1019.4
20260507061031 13 283 0.0 0.0 0.00 0.00 0.00 82 1019.6
20260507060529 13 283 0.0 0.0 0.00 0.00 0.00 82 1019.4
20260507060025 13 283 0.0 0.0 0.00 0.00 0.00 82 1019.4
20260507055520 14 283 0.0 0.0 0.00 0.00 0.00 82 1019.5
20260507055017 14 283 0.0 0.0 0.00 0.00 0.00 82 1019.5
20260507054513 14 282 0.0 0.0 0.00 0.00 0.00 82 1019.5
20260507054010 14 282 0.0 0.0 0.00 0.00 0.00 82 1019.8
20260507053508 14 282 0.0 0.0 0.00 0.00 0.00 81 1019.8
20260507053006 14 282 0.0 0.0 0.00 0.00 0.00 82 1019.6
20260507052504 14 284 0.0 0.0 0.00 0.00 0.00 81 1019.6
20260507052000 14 284 0.0 0.0 0.00 0.00 0.00 80 1019.7
20260507051458 14 284 0.0 0.0 0.00 0.00 0.00 80 1019.6
20260507050954 14 284 0.0 0.0 0.00 0.00 0.00 79 1019.8
20260507050450 15 284 0.0 0.0 0.00 0.00 0.00 79 1019.7
20260507045948 15 277 0.0 0.0 0.00 0.00 0.00 78 1019.8
20260507045444 15 276 0.0 0.0 0.00 0.00 0.00 78 1019.7
20260507044941 15 275 0.0 0.0 0.00 0.00 0.00 77 1019.5
20260507044438 15 275 0.0 0.0 0.00 0.00 0.00 77 1019.5
20260507043934 15 271 0.0 0.0 0.00 0.00 0.00 76 1019.5
20260507043431 15 254 0.0 0.0 0.00 0.00 0.00 76 1019.6
20260507042927 15 270 0.0 0.0 0.00 0.00 0.00 75 1019.4
20260507042424 15 276 0.0 0.0 0.00 0.00 0.00 74 1019.4
20260507041919 15 277 0.0 0.0 0.00 0.00 0.00 72 1019.6
20260507041416 15 257 1.6 3.2 0.00 0.00 0.00 71 1019.2
20260507040914 15 266 1.6 1.6 0.00 0.00 0.00 71 1019.5
20260507040409 16 277 0.0 1.6 0.00 0.00 0.00 70 1019.2
20260507035905 16 196 4.8 4.8 0.00 0.00 0.00 69 1019.4
20260507035402 16 237 3.2 4.8 0.00 0.00 0.00 69 1019.2
20260507034859 16 180 4.8 4.8 0.00 0.00 0.00 68 1019.1
20260507034355 16 142 6.4 8.0 0.00 0.00 0.00 68 1018.7
20260507033854 16 219 1.6 3.2 0.00 0.00 0.00 69 1018.8
20260507033351 16 286 0.0 0.0 0.00 0.00 0.00 69 1018.9
20260507032848 16 245 1.6 3.2 0.00 0.00 0.00 68 1018.8
20260507032345 16 278 1.6 1.6 0.00 0.00 0.00 68 1019.1
20260507031841 16 276 1.6 3.2 0.00 0.00 0.00 67 1018.8
20260507031338 16 265 4.8 4.8 0.00 0.00 0.00 67 1018.7
20260507030834 17 259 4.8 8.0 0.00 0.00 0.00 66 1018.7
20260507030332 17 278 1.6 1.6 0.00 0.00 0.00 66 1018.6
20260507025829 17 279 1.6 1.6 0.00 0.00 0.00 66 1018.5
20260507025326 17 280 0.0 1.6 0.00 0.00 0.00 66 1018.5
20260507024824 17 277 1.6 1.6 0.00 0.00 0.00 65 1018.4
20260507024321 17 260 4.8 4.8 0.00 0.00 0.00 65 1018.3
20260507023816 17 278 1.6 1.6 0.00 0.00 0.00 65 1018.5
20260507023313 17 257 6.4 9.7 0.00 0.00 0.00 65 1018.3
20260507022811 17 245 3.2 4.8 0.00 0.00 0.00 65 1018.3
20260507022307 18 261 4.8 4.8 0.00 0.00 0.00 65 1018.4
20260507021803 18 238 4.8 4.8 0.00 0.00 0.00 65 1018.3
20260507021259 18 244 9.7 12.9 0.00 0.00 0.00 65 1018.4
20260507020757 18 215 11.3 14.5 0.00 0.00 0.00 66 1018.1
20260507020253 18 245 9.7 11.3 0.00 0.00 0.00 65 1018.0
20260507015751 18 260 3.2 3.2 0.00 0.00 0.00 65 1017.9
20260507015248 18 237 6.4 8.0 0.00 0.00 0.00 65 1017.8
20260507014745 19 270 4.8 8.0 0.00 0.00 0.00 65 1017.9
20260507014241 19 265 9.7 11.3 0.00 0.00 0.00 65 1017.9
20260507013738 19 261 8.0 9.7 0.00 0.00 0.00 64 1017.9
20260507013235 20 253 12.9 17.7 0.00 0.00 0.00 63 1017.7
20260507012732 20 256 11.3 16.1 0.00 0.00 0.00 63 1017.7
20260507012228 20 253 9.7 12.9 0.00 0.00 0.00 63 1017.7
20260507011726 20 242 6.4 9.7 0.00 0.00 0.00 61 1017.7
20260507011222 20 236 8.0 9.7 0.00 0.00 0.00 62 1017.7
20260507010721 20 207 12.9 14.5 0.00 0.00 0.00 62 1017.5
20260507010218 20 237 12.9 14.5 0.00 0.00 0.00 61 1017.6
20260507005716 21 227 16.1 17.7 0.00 0.00 0.00 60 1017.5
20260507005212 21 226 8.0 9.7 0.00 0.00 0.00 60 1017.5
20260507004708 21 223 8.0 11.3 0.00 0.00 0.00 59 1017.5
20260507004206 22 198 11.3 16.1 0.00 0.00 0.00 58 1017.5
20260507003702 22 156 4.8 4.8 0.00 0.00 0.00 58 1017.5
20260507003158 22 236 8.0 11.3 0.00 0.00 0.00 57 1017.3
20260507002654 21 229 6.4 8.0 0.00 0.00 0.00 58 1017.5
20260507002150 21 219 6.4 9.7 0.00 0.00 0.00 59 1017.3
20260507001647 21 219 11.3 14.5 0.00 0.00 0.00 58 1017.2
20260507001144 22 261 8.0 12.9 0.00 0.00 0.00 58 1017.0
20260507000640 21 250 11.3 20.9 0.00 0.00 0.00 57 1017.2
20260507000136 22 245 11.3 17.7 0.00 0.00 0.00 57 1017.2
20260506235633 22 226 14.5 17.7 0.00 0.00 0.00 57 1017.0
20260506235128 22 244 6.4 8.0 0.00 0.00 0.00 57 1017.1
20260506234625 22 243 11.3 12.9 0.00 0.00 0.00 56 1016.7
20260506234122 22 219 11.3 12.9 0.00 0.00 0.00 57 1017.0
20260506233619 22 222 16.1 16.1 0.00 0.00 0.00 56 1016.9
20260506233116 22 234 16.1 17.7 0.00 0.00 0.00 55 1016.7
20260506232612 22 211 9.7 12.9 0.00 0.00 0.00 55 1017.0
20260506232108 22 285 11.3 14.5 0.00 0.00 0.00 55 1017.1
20260506231605 22 218 11.3 12.9 0.00 0.00 0.00 55 1016.8
20260506231103 22 221 8.0 9.7 0.00 0.00 0.00 55 1016.9
20260506230600 22 235 12.9 16.1 0.00 0.00 0.00 54 1017.1
20260506230057 22 238 9.7 14.5 0.00 0.00 0.00 56 1017.1
20260506225554 22 231 14.5 17.7 0.00 0.00 0.00 55 1017.0
20260506225050 22 228 11.3 14.5 0.00 0.00 0.00 55 1017.1
20260506224547 23 247 14.5 17.7 0.00 0.00 0.00 55 1017.1
20260506224043 23 263 3.2 4.8 0.00 0.00 0.00 54 1017.3
20260506223539 23 226 16.1 17.7 0.00 0.00 0.00 53 1017.3
20260506223036 23 224 12.9 14.5 0.00 0.00 0.00 53 1017.3
20260506222533 24 151 8.0 9.7 0.00 0.00 0.00 51 1017.4
20260506222029 24 239 6.4 8.0 0.00 0.00 0.00 51 1017.5
20260506221527 23 223 12.9 16.1 0.00 0.00 0.00 51 1017.4
20260506221025 24 268 6.4 8.0 0.00 0.00 0.00 51 1017.4
20260506220520 24 221 6.4 8.0 0.00 0.00 0.00 51 1017.4
20260506220016 24 260 11.3 16.1 0.00 0.00 0.00 50 1017.5
20260506215513 23 255 6.4 9.7 0.00 0.00 0.00 52 1017.7
20260506215009 23 229 8.0 11.3 0.00 0.00 0.00 51 1017.6
20260506214506 24 210 6.4 12.9 0.00 0.00 0.00 49 1017.5
20260506214003 23 252 8.0 9.7 0.00 0.00 0.00 52 1017.4
20260506213501 24 253 14.5 16.1 0.00 0.00 0.00 51 1017.7
20260506212958 24 218 14.5 17.7 0.00 0.00 0.00 50 1017.7
20260506212454 24 230 6.4 8.0 0.00 0.00 0.00 48 1017.9
20260506211949 24 234 11.3 14.5 0.00 0.00 0.00 48 1017.8
20260506211445 25 245 8.0 14.5 0.00 0.00 0.00 43 1017.7
20260506210943 25 297 0.0 1.6 0.00 0.00 0.00 39 1017.8
20260506210439 25 304 3.2 4.8 0.00 0.00 0.00 39 1018.0
20260506205936 24 287 0.0 1.6 0.00 0.00 0.00 38 1017.9
20260506205432 25 268 4.8 8.0 0.00 0.00 0.00 39 1018.1
20260506204928 23 261 1.6 3.2 0.00 0.00 0.00 40 1018.0
20260506204427 24 298 3.2 3.2 0.00 0.00 0.00 39 1018.4
20260506203924 24 259 4.8 4.8 0.00 0.00 0.00 40 1018.1
20260506203421 23 306 1.6 3.2 0.00 0.00 0.00 41 1018.2
20260506202918 23 317 8.0 11.3 0.00 0.00 0.00 42 1018.4
20260506202415 23 229 6.4 8.0 0.00 0.00 0.00 42 1018.4
20260506201911 23 250 8.0 9.7 0.00 0.00 0.00 41 1018.5
20260506201409 23 306 0.0 1.6 0.00 0.00 0.00 45 1018.4
20260506200905 23 274 1.6 1.6 0.00 0.00 0.00 44 1018.7
20260506200401 23 255 4.8 4.8 0.00 0.00 0.00 44 1018.7
20260506195858 23 307 4.8 4.8 0.00 0.00 0.00 43 1018.8
20260506195355 23 298 4.8 4.8 0.00 0.00 0.00 45 1018.9
20260506194852 23 287 3.2 3.2 0.00 0.00 0.00 42 1018.9
20260506194349 22 352 3.2 3.2 0.00 0.00 0.00 45 1019.2
20260506193846 22 270 4.8 8.0 0.00 0.00 0.00 45 1019.0
20260506193343 22 255 1.6 1.6 0.00 0.00 0.00 46 1019.1
20260506192839 21 284 3.2 4.8 0.00 0.00 0.00 48 1019.4
20260506192336 21 259 6.4 9.7 0.00 0.00 0.00 48 1019.5
20260506191833 21 53 1.6 4.8 0.00 0.00 0.00 48 1019.4
20260506191329 21 284 1.6 3.2 0.00 0.00 0.00 49 1019.6
20260506190826 21 274 3.2 4.8 0.00 0.00 0.00 48 1019.6
20260506190322 21 229 6.4 9.7 0.00 0.00 0.00 49 1019.6
20260506185820 20 252 11.3 14.5 0.00 0.00 0.00 50 1019.6
20260506185317 20 245 4.8 8.0 0.00 0.00 0.00 50 1019.8
20260506184814 20 284 3.2 3.2 0.00 0.00 0.00 52 1019.9
20260506184311 20 241 9.7 11.3 0.00 0.00 0.00 51 1020.1
20260506183808 20 224 6.4 8.0 0.00 0.00 0.00 50 1020.0
20260506183303 20 297 3.2 4.8 0.00 0.00 0.00 53 1019.9
20260506182801 20 320 9.7 11.3 0.00 0.00 0.00 50 1020.2
20260506182257 19 274 4.8 9.7 0.00 0.00 0.00 53 1020.1
20260506181755 19 293 4.8 8.0 0.00 0.00 0.00 53 1020.2
20260506181253 19 322 8.0 14.5 0.00 0.00 0.00 54 1020.2
20260506180750 18 301 3.2 4.8 0.00 0.00 0.00 55 1020.4
20260506180246 18 296 1.6 1.6 0.00 0.00 0.00 54 1020.4
20260506175742 18 291 8.0 11.3 0.00 0.00 0.00 55 1020.3
20260506175239 18 308 11.3 12.9 0.00 0.00 0.00 54 1020.5
20260506174737 18 264 4.8 8.0 0.00 0.00 0.00 54 1020.3
20260506174233 18 337 1.6 3.2 0.00 0.00 0.00 55 1020.4
20260506173732 18 281 1.6 1.6 0.00 0.00 0.00 55 1020.4
20260506173228 18 326 0.0 0.0 0.00 0.00 0.00 54 1020.5
20260506172725 19 259 4.8 4.8 0.00 0.00 0.00 53 1020.6
20260506172221 19 261 1.6 1.6 0.00 0.00 0.00 52 1020.5
20260506171719 18 272 3.2 4.8 0.00 0.00 0.00 54 1020.6
20260506171216 17 304 3.2 3.2 0.00 0.00 0.00 57 1020.5
20260506170714 17 275 3.2 3.2 0.00 0.00 0.00 58 1020.6
20260506170210 18 298 0.0 1.6 0.00 0.00 0.00 59 1020.5
20260506165709 17 290 0.0 0.0 0.00 0.00 0.00 60 1020.5
20260506165205 17 276 1.6 1.6 0.00 0.00 0.00 59 1020.6
20260506164702 17 262 3.2 3.2 0.00 0.00 0.00 60 1020.6
20260506164159 16 313 0.0 0.0 0.00 0.00 0.00 62 1020.5
20260506163655 16 284 0.0 0.0 0.00 0.00 0.00 66 1020.6
20260506163151 16 270 0.0 0.0 0.00 0.00 0.00 64 1020.6
20260506162647 16 307 0.0 0.0 0.00 0.00 0.00 64 1020.6
20260506162145 16 297 0.0 0.0 0.00 0.00 0.00 67 1020.7
20260506161642 16 312 0.0 0.0 0.00 0.00 0.00 66 1020.7
20260506161138 16 278 0.0 0.0 0.00 0.00 0.00 65 1020.8
20260506160636 15 276 0.0 0.0 0.00 0.00 0.00 68 1020.7
20260506160133 15 328 0.0 0.0 0.00 0.00 0.00 69 1020.7
20260506155632 15 167 0.0 0.0 0.00 0.00 0.00 67 1020.5
20260506155128 13 257 0.0 0.0 0.00 0.00 0.00 74 1020.5
20260506153230 14 283 0.0 0.0 0.00 0.00 0.00 74 1020.7
20260506152727 14 284 0.0 0.0 0.00 0.00 0.00 74 1020.6
20260506152225 13 195 0.0 0.0 0.00 0.00 0.00 75 1020.7
20260506151724 13 262 0.0 0.0 0.00 0.00 0.00 74 1020.8
20260506151220 13 247 0.0 0.0 0.00 0.00 0.00 73 1020.8
20260506150716 13 335 0.0 0.0 0.00 0.00 0.00 72 1020.8
20260506150213 13 291 0.0 0.0 0.00 0.00 0.00 72 1020.6
20260506145711 13 306 0.0 0.0 0.00 0.00 0.00 72 1020.8
20260506145207 12 285 0.0 0.0 0.00 0.00 0.00 73 1020.8
20260506144704 12 282 0.0 0.0 0.00 0.00 0.00 73 1020.8
20260506144201 12 310 0.0 0.0 0.00 0.00 0.00 75 1020.8
20260506143659 12 341 0.0 0.0 0.00 0.00 0.00 75 1020.6
20260506143156 11 303 0.0 0.0 0.00 0.00 0.00 79 1020.6
20260506142655 11 299 0.0 0.0 0.00 0.00 0.00 80 1020.5
20260506142152 11 306 0.0 0.0 0.00 0.00 0.00 80 1020.6
20260506141650 11 301 0.0 0.0 0.00 0.00 0.00 83 1020.7
20260506141148 10 275 0.0 0.0 0.00 0.00 0.00 84 1020.7
20260506140645 10 278 0.0 0.0 0.00 0.00 0.00 87 1020.6
20260506140142 10 312 0.0 0.0 0.00 0.00 0.00 90 1020.6
20260506135639 10 302 0.0 0.0 0.00 0.00 0.00 91 1020.4
20260506135135 9 301 0.0 0.0 0.00 0.00 0.00 93 1020.4
20260506134632 8 301 0.0 0.0 0.00 0.00 0.00 93 1020.3
20260506134128 8 300 0.0 0.0 0.00 0.00 0.00 94 1020.4
20260506133625 8 302 0.0 0.0 0.00 0.00 0.00 94 1020.3
20260506133122 7 301 0.0 0.0 0.00 0.00 0.00 94 1020.4
20260506132620 7 301 0.0 0.0 0.00 0.00 0.00 94 1020.3
20260506132116 7 300 0.0 0.0 0.00 0.00 0.00 94 1020.4
20260506131614 7 302 0.0 0.0 0.00 0.00 0.00 94 1020.3